Regional Weather Roundup
Issued by NWS Little Rock, AR

Home | Current Version | Previous Version | Text Only | Print | Product List | Glossary On
Versions: 1 2 3 4 5 6 7 8 9 10 11 12 13 14 15 16 17 18 19 20 21 22 23 24 25 26 27 28 29 30 31 32 33 34 35 36 37 38 39 40 41 42 43 44 45 46 47 48 49 50
000
ASUS44 KLZK 201305
RWRLZK

WEATHER ROUNDUP FOR ARKANSAS
NATIONAL WEATHER SERVICE LITTLE ROCK AR
800 AM CDT WED AUG 20 2014

NOTE: "FAIR" INDICATES FEW OR NO CLOUDS BELOW 12,000 FEET WITH NO
SIGNIFICANT WEATHER AND/OR OBSTRUCTIONS TO VISIBILITY.

ARZ001-003-010-029-201400-
NORTHWEST ARKANSAS

CITY           SKY/WX    TMP DP  RH WIND       PRES   REMARKS
FAYETTEVILLE   SUNNY     74  70  87 S7        29.99R
FORT SMITH     SUNNY     76  73  91 NE3       29.96R
HARRISON       SUNNY     76  69  79 SE5       29.99R
BENTONVILLE    SUNNY     75  70  83 S8        29.99R
ROGERS         SUNNY     77  68  73 S12       30.00R
SILOAM SPGS    SUNNY     73  64  73 S8        29.99R
HIGHFILL       SUNNY     74  69  85 S8        29.98R
SPRINGDALE     MOSUNNY   77  68  73 S10       30.00R
$$

ARZ004-005-016-201400-
NORTH CENTRAL ARKANSAS

CITY           SKY/WX    TMP DP  RH WIND       PRES   REMARKS
BATESVILLE     SUNNY     81  73  78 SW9       29.97R HX  85
FLIPPIN        SUNNY     75  68  78 CALM      29.97R
MTN HOME       SUNNY     77  71  82 SW3       29.97R
$$

ARZ040-041-201400-
WEST CENTRAL ARKANSAS

CITY           SKY/WX    TMP DP  RH WIND       PRES   REMARKS
MENA           SUNNY     77  72  83 CALM      30.02R
MOUNT IDA      SUNNY     74  70  87 CALM      29.98R
$$

ARZ009-017-025-026-028-201400-
NORTHEAST ARKANSAS

CITY           SKY/WX    TMP DP  RH WIND       PRES   REMARKS
CORNING        FAIR      77  77 100 SW8       29.95R
JONESBORO      SUNNY     79  75  87 SW9       29.96R
NEWPORT        SUNNY     79  76  90 S7        29.98R
WALNUT RIDGE   SUNNY     79  73  83 SW6       29.95R
BLYTHEVILLE    SUNNY     79  77  94 SW9       29.97R
$$

ARZ022-023-033-042-044-201400-
CENTRAL ARKANSAS

CITY           SKY/WX    TMP DP  RH WIND       PRES   REMARKS
LITTLE ROCK    MOSUNNY   77  70  79 SW6       30.00R
N LITTLE ROCK    N/A     77  72  85 SW3       30.00R
JACKSONVILLE   SUNNY     77  73  86 SW3       29.99R
SEARCY           N/A     78  75  90 CALM        N/A
HOT SPRINGS    SUNNY     77  70  79 CALM      30.01R
RUSSELLVILLE   SUNNY     77  73  87 SE3       29.98R
CLINTON        FAIR      73  73 100 CALM      29.99R FOG
$$

ARZ036-201400-
EAST ARKANSAS

CITY           SKY/WX    TMP DP  RH WIND       PRES   REMARKS
WEST MEMPHIS   SUNNY     78  76  93 VRB6      29.98R
$$

ARZ050-053-066-070-073-201400-
SOUTHWEST ARKANSAS

CITY           SKY/WX    TMP DP  RH WIND       PRES   REMARKS
ARKADELPHIA    FAIR      73  72  97 S3        30.02R
CAMDEN         SUNNY     73  68  83 S3        30.01R
TEXARKANA      SUNNY     74  70  87 S6        30.01R
EL DORADO      SUNNY     72  70  93 S5        30.03R
DE QUEEN       SUNNY     72  70  93 CALM      29.99R
$$

ARZ056-057-069-201400-
SOUTHEAST ARKANSAS

CITY           SKY/WX    TMP DP  RH WIND       PRES   REMARKS
PINE BLUFF     SUNNY     76  69  79 SW5       30.01R
STUTTGART      SUNNY     77  72  83 SW7       30.01R
MONTICELLO     SUNNY     76  70  82 SW6       30.02R

$$




USA.gov is the U.S. government's official web portal to all federal, state and local government web resources and services.